x

Virginia Beach 64 Nm East Of Virginia Beach, Va (44014) Wave Buoy

8:50am - Tue 25th Apr 2017 All times are EDT. -4 hours from GMT.

  • Sig Wave height 15.1ft
  • Swell Direction
  • Peak Period 10s
  • Average Period 8s
  • Wind
    13mph, 18mph gusts
  • Sea Temp 54°f
  • Air Temp 59°f
  • Sea Pressure 1005mb
  • Virginia Beach 64 Nm East Of Virginia Beach, Va
  • Virginia Beach 64 Nm East Of Virginia Beach, Va

More Historic Weather Station data

Upgrade to MSW Pro to gain access to the past 30 days of data for over 8000 Wavebouys and Weather Stations around the globe.

Join Pro

Comparision Forecast

View Surf forecast
   
Tue 04/25 8:50am 15ft 10s 8s 13 18 mph 1005mb 54f 59f
7:50am 15ft 11s 8s 25 29 mph 1003.8mb 54f 62f
6:50am 17ft 11s 8s 25 29 mph 1003.5mb 54f 62f
5:50am 15.5ft 10s 8s 25 29 mph 1004.3mb 54f 62f
4:50am 13ft 10s 7s 20 25 mph 1005.1mb 54f 62f
3:50am 12.5ft 10s 7s 16 22 mph 1006.3mb 54f 61f
2:50am 10.5ft 8s 7s 13 27 mph 1007.4mb 54f 60f
1:50am 10.5ft 9s 6s 22 27 mph 1008.3mb 54f 62f
12:50am 10.5ft 8s 7s 22 27 mph 1009.3mb 54f 62f
Mon 04/24 11:50pm 9.5ft 8s 7s 18 27 mph 1009.9mb 54f 62f
10:50pm 8.5ft 7s 6s 18 20 mph 1010.6mb 54f 63f
9:50pm 7ft 8s 6s 13
mph
1011.2mb 54f 60f
8:50pm 7ft 7s 6s 11 13 mph 1011.5mb 54f 61f
7:50pm 6ft 7s 6s 11 13 mph 1011.3mb 54f 60f
6:50pm 6ft 7s 6s 13
mph
1011.5mb 55f 60f
5:50pm 6ft 6s 6s 11 16 mph 1011.7mb 55f 60f
4:50pm 6ft 6s 6s 13
mph
1011.3mb 55f 61f
3:50pm 5.5ft 7s 6s 9 11 mph 1011.9mb 55f 60f
2:50pm 5ft 6s 6s 11
mph
1012.6mb 54f 60f
1:50pm 4.5ft 11s 6s 11 13 mph 1013.1mb 54f 60f
12:50pm 5ft 8s 6s 11
mph
1013.9mb 54f 59f
11:50am 5ft 8s 6s 9
mph
1014.2mb 54f 59f
10:50am 5ft 8s 6s 11 13 mph 1014.2mb 53f 59f
9:50am 5ft 6s 6s 11 13 mph 1014.2mb 53f 58f
8:50am 5ft 8s 6s 9 11 mph 1014.3mb 53f 61f
7:50am 5ft 8s 6s 13
mph
1014.1mb 53f 58f
6:50am 6ft 8s 6s 13 16 mph 1013.7mb 53f 58f
5:50am 6ft 7s 6s 16 20 mph 1013.2mb 53f 58f
4:50am 6ft 8s 6s 13 16 mph 1013.1mb 53f 58f
3:50am 6.5ft 9s 6s 18 20 mph 1013.3mb 53f 58f
2:50am 6ft 8s 5s 20 22 mph 1014mb 53f 58f
1:50am 6ft 8s 5s 18 20 mph 1014.8mb 53f 57f
12:50am 5.5ft 6s 5s 18 20 mph 1015.4mb 53f 56f
Sun 04/23 11:50pm 6ft 8s 5s 18 22 mph 1016mb 53f 56f
10:50pm 5.5ft 8s 6s 18 20 mph 1016.6mb 53f 55f
9:50pm 5.5ft 9s 5s 18 22 mph 1016.8mb 53f 55f
8:50pm 6ft 6s 5s 18 22 mph 1016.6mb 53f 55f
7:50pm 6ft 8s 5s 18 20 mph 1016.3mb 53f 55f
6:50pm 6ft 8s 5s 20 22 mph 1016.1mb 53f 55f
5:50pm 6ft 7s 5s 20 25 mph 1016.2mb 53f 55f
4:50pm 5.5ft 11s 5s 20 25 mph 1016.5mb 53f 55f
3:50pm 5ft 7s 5s 20 22 mph 1016.9mb 53f 55f
2:50pm 5ft 11s 5s 18 20 mph 1017.4mb 54f 55f
1:50pm 5ft 11s 5s 16 20 mph 1017.5mb 54f 55f
12:50pm 5ft 6s 5s 13 18 mph 1018mb 54f 55f
11:50am 5ft 11s 5s 16 18 mph 1017.7mb 54f 53f
10:50am 5ft 7s 5s 13 18 mph 1017.9mb 54f 53f
9:50am 5.5ft 11s 5s 18 20 mph 1017.2mb 54f 53f
8:50am 6ft 6s 5s 20 22 mph 1016.4mb 54f 53f
7:50am 6ft 6s 5s 22 27 mph 1016.5mb 55f 53f
6:50am 6ft 11s 5s 20 22 mph 1016.3mb 55f 53f
5:50am 6ft 11s 5s 20 25 mph 1015.1mb 55f 53f
4:50am 6ft 5s 5s 25 29 mph 1014mb 55f 53f
3:50am 5.5ft 11s 5s 22 27 mph 1013.7mb 56f 54f
2:50am 5.5ft 6s 5s 22 27 mph 1012.8mb 56f 54f
1:50am 5.5ft 12s 5s 20 25 mph 1013.7mb 56f 54f
12:50am 5.5ft 6s 5s 16 20 mph 1014mb 56f 56f
Sat 04/22 11:50pm 6ft 6s 5s 18 22 mph 1013.1mb 57f 56f
10:50pm 6.5ft 6s 5s 22 27 mph 1012.3mb 57f 56f
9:50pm 6ft 6s 5s 20 25 mph 1014.9mb 57f 54f
7:50pm 4.5ft 10s 5s 22 27 mph 1010.5mb 58f 54f
6:50pm 4.5ft 13s 5s 20 25 mph 1010.8mb 59f 56f
5:50pm 4ft 11s 5s 18 22 mph 1011.4mb 59f 56f
4:50pm 4.5ft 11s 6s 7 9 mph 1010.7mb 59f 62f
3:50pm 4.5ft 6s 6s 7 9 mph 1010.8mb 59f 61f
2:50pm 4.5ft 6s 6s 9 11 mph 1011.1mb 58f 61f
1:50pm 4.5ft 6s 6s 7 9 mph 1011.6mb 58f 60f
12:50pm 4.5ft 6s 6s 9
mph
1011.9mb 57f 61f
11:50am 4.5ft 6s 6s 11 13 mph 1011.9mb 57f 60f
10:50am 4.5ft 11s 6s 11 13 mph 1012.2mb 56f 60f
9:50am 4.5ft 6s 6s 11 13 mph 1012.2mb 56f 60f
8:50am 4.5ft 12s 6s 9 11 mph 1012.1mb 56f 60f
7:50am 4ft 6s 6s 9 11 mph 1012mb 56f 59f
6:50am 4.5ft 6s 6s 11
mph
1011.8mb 56f 60f
5:50am 4.5ft 11s 6s 13 16 mph 1011.2mb 56f 61f
4:50am 4ft 11s 5s 16 18 mph 1011mb 57f 61f
3:50am 4ft 6s 5s 11 13 mph 1010.9mb 57f 61f
2:50am 3.5ft 10s 5s 16 18 mph 1011mb 57f 62f
1:50am 4ft 6s 5s 9 18 mph 1011.8mb 57f 61f
12:50am 3.5ft 11s 5s 13 16 mph 1011.9mb 57f 61f
Fri 04/21 11:50pm 3.5ft 11s 5s 13
mph
1012.1mb 57f 62f
10:50pm 3.5ft 10s 5s 11
mph
1012.1mb 57f 60f
9:50pm 4ft 11s 5s 13 16 mph 1012mb 57f 61f
7:50pm 3.5ft 9s 5s 16 18 mph 1011mb 57f 62f
6:50pm 3.5ft 11s 5s 11 13 mph 1011.1mb 58f 62f
5:50pm 3.5ft 10s 5s 13 16 mph 1011.2mb 58f 62f
4:50pm 3ft 10s 5s 13
mph
1011.2mb 57f 62f
3:50pm 3ft 9s 5s 11 13 mph 1011.5mb 57f 61f
2:50pm 3ft 9s 5s 9 11 mph 1012.3mb 57f 60f